Time,TemperatureF,DewpointF,PressureIn,WindDirection,WindDirectionDegrees,WindSpeedMPH,WindSpeedGustMPH,Humidity,HourlyPrecipIn,Conditions,Clouds,dailyrainin,SolarRadiationWatts/m^2,SoftwareType,DateUTC
2013-07-30 00:00:00,70.7,63.1,30.13,WNW,300,0.0,0.0,77,0.00,,,0.00,0.0,meteohub,2013-07-30 04:00:00,
2013-07-30 00:01:00,70.7,63.1,30.13,WNW,300,0.0,0.0,77,0.00,,,0.00,0.0,meteohub,2013-07-30 04:01:00,
2013-07-30 00:02:00,70.7,63.1,30.13,WNW,299,0.0,0.0,77,0.00,,,0.00,0.0,meteohub,2013-07-30 04:02:00,
2013-07-30 00:03:00,70.5,62.6,30.13,WNW,300,0.0,0.0,76,0.00,,,0.00,0.0,meteohub,2013-07-30 04:03:00,
2013-07-30 00:09:00,70.7,62.8,30.14,WNW,300,1.0,0.0,76,0.00,,,0.00,0.0,meteohub,2013-07-30 04:09:00,
2013-07-30 00:14:00,70.9,63.0,30.14,WNW,299,0.0,0.0,76,0.00,,,0.00,0.0,meteohub,2013-07-30 04:14:00,
2013-07-30 00:19:00,71.1,62.8,30.13,WNW,300,0.0,1.0,75,0.00,,,0.00,0.0,meteohub,2013-07-30 04:19:00,
2013-07-30 00:24:00,71.2,63.0,30.13,WNW,300,0.0,1.0,75,0.00,,,0.00,0.0,meteohub,2013-07-30 04:24:00,
2013-07-30 00:29:00,71.2,63.0,30.13,WNW,300,0.0,1.0,75,0.00,,,0.00,0.0,meteohub,2013-07-30 04:29:00,
2013-07-30 00:34:00,71.2,62.6,30.13,WNW,300,0.0,1.0,74,0.00,,,0.00,0.0,meteohub,2013-07-30 04:34:00,
2013-07-30 00:39:00,71.2,62.6,30.13,WNW,300,0.0,1.0,74,0.00,,,0.00,0.0,meteohub,2013-07-30 04:39:00,
2013-07-30 00:44:00,71.2,62.6,30.13,WNW,299,0.0,1.0,74,0.00,,,0.00,0.0,meteohub,2013-07-30 04:44:00,
2013-07-30 00:49:00,71.2,62.6,30.13,WNW,299,0.0,1.0,74,0.00,,,0.00,0.0,meteohub,2013-07-30 04:49:00,
2013-07-30 00:54:00,71.1,62.4,30.13,WNW,299,0.0,1.0,74,0.00,,,0.00,0.0,meteohub,2013-07-30 04:54:00,
2013-07-30 00:59:00,70.9,62.6,30.13,WNW,300,0.0,1.0,75,0.00,,,0.00,0.0,meteohub,2013-07-30 04:59:00,
2013-07-30 01:04:00,70.9,63.0,30.13,WNW,300,0.0,1.0,76,0.00,,,0.00,0.0,meteohub,2013-07-30 05:04:00,
2013-07-30 01:09:00,70.5,62.6,30.13,WNW,300,0.0,2.0,76,0.00,,,0.00,0.0,meteohub,2013-07-30 05:09:00,
2013-07-30 01:14:00,70.3,62.4,30.13,WNW,300,0.0,2.0,76,0.00,,,0.00,0.0,meteohub,2013-07-30 05:14:00,
2013-07-30 01:19:00,70.3,62.4,30.13,WNW,300,0.0,2.0,76,0.00,,,0.00,0.0,meteohub,2013-07-30 05:19:00,
2013-07-30 01:24:00,70.2,62.2,30.13,WNW,300,0.0,1.0,76,0.00,,,0.00,0.0,meteohub,2013-07-30 05:24:00,
2013-07-30 01:29:00,70.2,62.2,30.13,WNW,300,0.0,1.0,76,0.00,,,0.00,0.0,meteohub,2013-07-30 05:29:00,
2013-07-30 01:35:00,70.3,62.4,30.13,WNW,300,1.0,2.0,76,0.00,,,0.00,0.0,meteohub,2013-07-30 05:35:00,
2013-07-30 01:40:00,70.3,62.1,30.13,WNW,300,0.0,2.0,75,0.00,,,0.00,0.0,meteohub,2013-07-30 05:40:00,
2013-07-30 01:45:00,70.3,62.1,30.13,WNW,300,0.0,2.0,75,0.00,,,0.00,0.0,meteohub,2013-07-30 05:45:00,
2013-07-30 01:50:00,70.5,61.9,30.13,WNW,299,1.0,2.0,74,0.00,,,0.00,0.0,meteohub,2013-07-30 05:50:00,
2013-07-30 01:55:00,70.9,62.2,30.13,WNW,296,0.0,1.0,74,0.00,,,0.00,0.0,meteohub,2013-07-30 05:55:00,
2013-07-30 02:00:00,70.9,61.9,30.13,WNW,296,0.0,3.0,73,0.00,,,0.00,0.0,meteohub,2013-07-30 06:00:00,
2013-07-30 02:05:00,70.9,61.9,30.13,WNW,296,0.0,3.0,73,0.00,,,0.00,0.0,meteohub,2013-07-30 06:05:00,
2013-07-30 02:10:00,70.9,61.9,30.13,WNW,296,0.0,2.0,73,0.00,,,0.00,0.0,meteohub,2013-07-30 06:10:00,
2013-07-30 02:15:00,70.9,61.9,30.13,WNW,286,0.0,4.0,73,0.00,,,0.00,0.0,meteohub,2013-07-30 06:15:00,
2013-07-30 02:20:00,70.9,61.9,30.13,WNW,287,0.0,4.0,73,0.00,,,0.00,0.0,meteohub,2013-07-30 06:20:00,
2013-07-30 02:25:00,70.9,61.9,30.13,WNW,287,0.0,4.0,73,0.00,,,0.00,0.0,meteohub,2013-07-30 06:25:00,
2013-07-30 02:30:00,70.7,61.7,30.13,WNW,287,0.0,2.0,73,0.00,,,0.00,0.0,meteohub,2013-07-30 06:30:00,
2013-07-30 02:35:00,70.5,61.9,30.13,WNW,287,0.0,2.0,74,0.00,,,0.00,0.0,meteohub,2013-07-30 06:35:00,
2013-07-30 02:40:00,70.3,62.1,30.13,WNW,287,0.0,2.0,75,0.00,,,0.00,0.0,meteohub,2013-07-30 06:40:00,
2013-07-30 02:46:00,70.2,61.9,30.14,WNW,287,0.0,0.0,75,0.00,,,0.00,0.0,meteohub,2013-07-30 06:46:00,
2013-07-30 02:51:00,70.0,62.4,30.13,WNW,287,0.0,0.0,77,0.00,,,0.00,0.0,meteohub,2013-07-30 06:51:00,
2013-07-30 02:56:00,69.4,62.2,30.14,WNW,287,0.0,0.0,78,0.00,,,0.00,0.0,meteohub,2013-07-30 06:56:00,
2013-07-30 03:01:00,68.9,62.1,30.14,WNW,287,0.0,0.0,79,0.00,,,0.00,0.0,meteohub,2013-07-30 07:01:00,
2013-07-30 03:06:00,68.5,61.7,30.14,WNW,287,0.0,1.0,79,0.00,,,0.00,0.0,meteohub,2013-07-30 07:06:00,
2013-07-30 03:11:00,68.4,61.9,30.14,WNW,287,0.0,1.0,80,0.00,,,0.00,0.0,meteohub,2013-07-30 07:11:00,
2013-07-30 03:16:00,68.4,61.9,30.14,WNW,287,0.0,1.0,80,0.00,,,0.00,0.0,meteohub,2013-07-30 07:16:00,
2013-07-30 03:21:00,68.4,61.9,30.14,WNW,287,0.0,1.0,80,0.00,,,0.00,0.0,meteohub,2013-07-30 07:21:00,
2013-07-30 03:26:00,68.4,61.9,30.14,WNW,287,0.0,1.0,80,0.00,,,0.00,0.0,meteohub,2013-07-30 07:26:00,
2013-07-30 03:31:00,68.2,61.7,30.14,WNW,287,0.0,1.0,80,0.00,,,0.00,0.0,meteohub,2013-07-30 07:31:00,
2013-07-30 03:37:00,68.2,61.7,30.14,WNW,287,0.0,1.0,80,0.00,,,0.00,0.0,meteohub,2013-07-30 07:37:00,
2013-07-30 03:42:00,68.0,61.5,30.14,WNW,287,0.0,0.0,80,0.00,,,0.00,0.0,meteohub,2013-07-30 07:42:00,
2013-07-30 03:47:00,67.8,61.7,30.14,WNW,287,0.0,0.0,81,0.00,,,0.00,0.0,meteohub,2013-07-30 07:47:00,
2013-07-30 03:52:00,67.6,61.5,30.14,WNW,287,0.0,1.0,81,0.00,,,0.00,0.0,meteohub,2013-07-30 07:52:00,
2013-07-30 03:57:00,67.6,61.5,30.14,WNW,287,0.0,1.0,81,0.00,,,0.00,0.0,meteohub,2013-07-30 07:57:00,
2013-07-30 04:02:00,67.5,61.7,30.14,WNW,287,0.0,1.0,82,0.00,,,0.00,0.0,meteohub,2013-07-30 08:02:00,
2013-07-30 04:07:00,67.3,61.5,30.13,WNW,287,0.0,1.0,82,0.00,,,0.00,0.0,meteohub,2013-07-30 08:07:00,
2013-07-30 04:12:00,67.3,61.5,30.13,WNW,287,0.0,1.0,82,0.00,,,0.00,0.0,meteohub,2013-07-30 08:12:00,
2013-07-30 04:17:00,67.3,61.2,30.13,WNW,287,0.0,1.0,81,0.00,,,0.00,0.0,meteohub,2013-07-30 08:17:00,
2013-07-30 04:22:00,67.3,61.2,30.13,WNW,287,0.0,1.0,81,0.00,,,0.00,0.0,meteohub,2013-07-30 08:22:00,
2013-07-30 04:27:00,67.5,61.2,30.13,WNW,287,0.0,0.0,80,0.00,,,0.00,0.0,meteohub,2013-07-30 08:27:00,
2013-07-30 04:32:00,67.5,61.3,30.13,WNW,287,0.0,0.0,81,0.00,,,0.00,0.0,meteohub,2013-07-30 08:32:00,
2013-07-30 04:37:00,67.5,61.2,30.14,WNW,287,0.0,0.0,80,0.00,,,0.00,0.0,meteohub,2013-07-30 08:37:00,
2013-07-30 04:43:00,67.6,61.2,30.14,WNW,287,0.0,1.0,80,0.00,,,0.00,0.0,meteohub,2013-07-30 08:43:00,
2013-07-30 04:48:00,67.6,61.2,30.14,WNW,287,0.0,2.0,80,0.00,,,0.00,0.0,meteohub,2013-07-30 08:48:00,
2013-07-30 04:53:00,67.8,61.0,30.14,WNW,287,0.0,2.0,79,0.00,,,0.00,0.0,meteohub,2013-07-30 08:53:00,
2013-07-30 04:58:00,67.8,61.3,30.14,WNW,287,0.0,2.0,80,0.00,,,0.00,0.0,meteohub,2013-07-30 08:58:00,
2013-07-30 05:03:00,67.8,61.3,30.14,WNW,287,0.0,1.0,80,0.00,,,0.00,0.0,meteohub,2013-07-30 09:03:00,
2013-07-30 05:08:00,67.8,61.3,30.14,WNW,287,0.0,1.0,80,0.00,,,0.00,0.0,meteohub,2013-07-30 09:08:00,
2013-07-30 05:13:00,67.8,61.3,30.14,WNW,287,0.0,1.0,80,0.00,,,0.00,0.0,meteohub,2013-07-30 09:13:00,
2013-07-30 05:18:00,67.8,61.3,30.14,WNW,287,0.0,1.0,80,0.00,,,0.00,0.0,meteohub,2013-07-30 09:18:00,
2013-07-30 05:23:00,67.8,61.0,30.14,WNW,287,0.0,2.0,79,0.00,,,0.00,0.0,meteohub,2013-07-30 09:23:00,
2013-07-30 05:28:00,68.0,61.2,30.14,WNW,287,0.0,3.0,79,0.00,,,0.00,0.0,meteohub,2013-07-30 09:28:00,
2013-07-30 05:33:00,68.0,61.2,30.14,West,275,0.0,4.0,79,0.00,,,0.00,0.0,meteohub,2013-07-30 09:33:00,
2013-07-30 05:38:00,68.2,61.0,30.14,WNW,291,0.0,4.0,78,0.00,,,0.00,0.0,meteohub,2013-07-30 09:38:00,
2013-07-30 05:43:00,68.2,60.6,30.14,WNW,292,0.0,4.0,77,0.00,,,0.00,0.0,meteohub,2013-07-30 09:43:00,
2013-07-30 05:49:00,68.4,60.8,30.14,WNW,292,0.0,4.0,77,0.00,,,0.00,0.0,meteohub,2013-07-30 09:49:00,
2013-07-30 05:54:00,68.4,60.8,30.14,WNW,292,0.0,2.0,77,0.00,,,0.00,0.0,meteohub,2013-07-30 09:54:00,
2013-07-30 06:06:00,68.4,60.8,30.15,WNW,291,0.0,2.0,77,0.00,,,0.00,0.0,meteohub,2013-07-30 10:06:00,
2013-07-30 06:11:00,68.0,61.5,30.15,WNW,292,0.0,1.0,80,0.00,,,0.00,0.0,meteohub,2013-07-30 10:11:00,
2013-07-30 06:16:00,67.6,61.2,30.16,WNW,283,0.0,1.0,80,0.00,,,0.00,0.0,meteohub,2013-07-30 10:16:00,
2013-07-30 06:21:00,67.3,61.5,30.16,WNW,283,0.0,1.0,82,0.00,,,0.00,5.0,meteohub,2013-07-30 10:21:00,
2013-07-30 06:26:00,66.7,61.3,30.17,WNW,283,0.0,1.0,83,0.00,,,0.00,7.0,meteohub,2013-07-30 10:26:00,
2013-07-30 06:31:00,66.6,61.5,30.17,WNW,283,0.0,1.0,84,0.00,,,0.00,11.0,meteohub,2013-07-30 10:31:00,
2013-07-30 06:36:00,66.2,61.2,30.17,WNW,283,0.0,0.0,84,0.00,,,0.00,14.0,meteohub,2013-07-30 10:36:00,
2013-07-30 06:41:00,66.0,61.3,30.17,WNW,283,0.0,0.0,85,0.00,,,0.00,18.0,meteohub,2013-07-30 10:41:00,
2013-07-30 06:46:00,65.8,61.2,30.17,WNW,283,0.0,0.0,85,0.00,,,0.00,21.0,meteohub,2013-07-30 10:46:00,
2013-07-30 06:51:00,65.7,61.3,30.17,WNW,283,0.0,0.0,86,0.00,,,0.00,23.0,meteohub,2013-07-30 10:51:00,
2013-07-30 06:56:00,65.7,61.3,30.18,WNW,283,0.0,0.0,86,0.00,,,0.00,26.0,meteohub,2013-07-30 10:56:00,
2013-07-30 07:02:00,65.7,61.7,30.18,WNW,283,0.0,0.0,87,0.00,,,0.00,28.0,meteohub,2013-07-30 11:02:00,
2013-07-30 07:07:00,65.7,61.7,30.18,WNW,283,0.0,0.0,87,0.00,,,0.00,32.0,meteohub,2013-07-30 11:07:00,
2013-07-30 07:12:00,65.7,61.7,30.18,WNW,283,0.0,0.0,87,0.00,,,0.00,33.0,meteohub,2013-07-30 11:12:00,
2013-07-30 07:17:00,65.8,61.5,30.18,WNW,283,0.0,0.0,86,0.00,,,0.00,37.0,meteohub,2013-07-30 11:17:00,
2013-07-30 07:22:00,66.0,61.3,30.18,WNW,283,0.0,1.0,85,0.00,,,0.00,40.0,meteohub,2013-07-30 11:22:00,
2013-07-30 07:27:00,66.4,61.3,30.18,WNW,283,0.0,1.0,84,0.00,,,0.00,44.0,meteohub,2013-07-30 11:27:00,
2013-07-30 07:32:00,66.7,61.3,30.18,WNW,283,1.0,1.0,83,0.00,,,0.00,46.0,meteohub,2013-07-30 11:32:00,
2013-07-30 07:37:00,67.1,61.3,30.19,WNW,283,0.0,1.0,82,0.00,,,0.00,53.0,meteohub,2013-07-30 11:37:00,
2013-07-30 07:42:00,67.5,61.7,30.19,WNW,283,0.0,1.0,82,0.00,,,0.00,56.0,meteohub,2013-07-30 11:42:00,
2013-07-30 07:47:00,67.8,61.3,30.19,WNW,283,0.0,1.0,80,0.00,,,0.00,62.0,meteohub,2013-07-30 11:47:00,
2013-07-30 07:52:00,68.2,62.1,30.19,WNW,283,1.0,1.0,81,0.00,,,0.00,54.0,meteohub,2013-07-30 11:52:00,
2013-07-30 07:57:00,68.4,61.9,30.19,WNW,283,0.0,1.0,80,0.00,,,0.00,83.0,meteohub,2013-07-30 11:57:00,
2013-07-30 08:02:00,68.5,62.1,30.20,WNW,286,0.0,1.0,80,0.00,,,0.00,70.0,meteohub,2013-07-30 12:02:00,
2013-07-30 08:07:00,68.9,62.4,30.19,WNW,286,0.0,4.0,80,0.00,,,0.00,60.0,meteohub,2013-07-30 12:07:00,
2013-07-30 08:12:00,69.1,62.2,30.19,WNW,286,0.0,4.0,79,0.00,,,0.00,47.0,meteohub,2013-07-30 12:12:00,
2013-07-30 08:17:00,69.3,62.8,30.20,WNW,286,0.0,5.0,80,0.00,,,0.00,70.0,meteohub,2013-07-30 12:17:00,
2013-07-30 08:22:00,69.3,62.8,30.20,WNW,286,0.0,5.0,80,0.00,,,0.00,67.0,meteohub,2013-07-30 12:22:00,
2013-07-30 08:27:00,69.4,63.0,30.20,WNW,286,0.0,5.0,80,0.00,,,0.00,67.0,meteohub,2013-07-30 12:27:00,
2013-07-30 08:32:00,69.6,63.1,30.20,WNW,286,0.0,3.0,80,0.00,,,0.00,69.0,meteohub,2013-07-30 12:32:00,
2013-07-30 08:37:00,70.0,63.5,30.20,WNW,286,0.0,3.0,80,0.00,,,0.00,69.0,meteohub,2013-07-30 12:37:00,
2013-07-30 08:42:00,70.2,63.3,30.20,WNW,286,0.0,1.0,79,0.00,,,0.00,69.0,meteohub,2013-07-30 12:42:00,
2013-07-30 08:47:00,70.5,63.3,30.20,WNW,287,0.0,2.0,78,0.00,,,0.00,70.0,meteohub,2013-07-30 12:47:00,
2013-07-30 08:52:00,70.7,63.1,30.19,WNW,287,0.0,2.0,77,0.00,,,0.00,72.0,meteohub,2013-07-30 12:52:00,
2013-07-30 08:57:00,71.1,63.1,30.19,WNW,287,0.0,2.0,76,0.00,,,0.00,74.0,meteohub,2013-07-30 12:57:00,
2013-07-30 09:02:00,71.2,63.0,30.19,WNW,286,0.0,3.0,75,0.00,,,0.00,76.0,meteohub,2013-07-30 13:02:00,
2013-07-30 09:07:00,71.8,63.0,30.19,WNW,286,0.0,3.0,74,0.00,,,0.00,76.0,meteohub,2013-07-30 13:07:00,
2013-07-30 09:12:00,72.0,62.8,30.19,WNW,286,0.0,3.0,73,0.00,,,0.00,77.0,meteohub,2013-07-30 13:12:00,
2013-07-30 09:17:00,72.3,63.1,30.19,WNW,284,0.0,1.0,73,0.00,,,0.00,79.0,meteohub,2013-07-30 13:17:00,
2013-07-30 09:22:00,72.7,63.1,30.19,WNW,284,0.0,1.0,72,0.00,,,0.00,81.0,meteohub,2013-07-30 13:22:00,
2013-07-30 09:27:00,72.9,63.3,30.19,WNW,284,0.0,2.0,72,0.00,,,0.00,83.0,meteohub,2013-07-30 13:27:00,
2013-07-30 09:32:00,73.0,63.9,30.19,WNW,284,0.0,2.0,73,0.00,,,0.00,84.0,meteohub,2013-07-30 13:32:00,
2013-07-30 09:37:00,73.2,63.7,30.19,WNW,285,0.0,2.0,72,0.00,,,0.00,102.0,meteohub,2013-07-30 13:37:00,
2013-07-30 09:42:00,73.8,64.2,30.19,WNW,285,0.0,1.0,72,0.00,,,0.00,97.0,meteohub,2013-07-30 13:42:00,
2013-07-30 09:47:00,74.1,63.7,30.19,WNW,285,0.0,1.0,70,0.00,,,0.00,497.0,meteohub,2013-07-30 13:47:00,
2013-07-30 09:52:00,74.1,63.0,30.19,WNW,285,0.0,1.0,68,0.00,,,0.00,102.0,meteohub,2013-07-30 13:52:00,
2013-07-30 09:57:00,74.3,64.2,30.19,WNW,285,0.0,3.0,71,0.00,,,0.00,93.0,meteohub,2013-07-30 13:57:00,
2013-07-30 10:07:00,74.7,63.0,30.19,WNW,283,0.0,2.0,67,0.00,,,0.00,100.0,meteohub,2013-07-30 14:07:00,
2013-07-30 10:12:00,74.8,63.5,30.19,WNW,283,0.0,3.0,68,0.00,,,0.00,183.0,meteohub,2013-07-30 14:12:00,
2013-07-30 10:18:00,75.0,63.3,30.19,WNW,283,0.0,3.0,67,0.00,,,0.00,111.0,meteohub,2013-07-30 14:18:00,
2013-07-30 10:23:00,75.0,63.3,30.19,West,279,0.0,3.0,67,0.00,,,0.00,123.0,meteohub,2013-07-30 14:23:00,
2013-07-30 10:28:00,75.4,63.7,30.19,West,279,0.0,4.0,67,0.00,,,0.00,113.0,meteohub,2013-07-30 14:28:00,
2013-07-30 10:33:00,75.7,63.1,30.19,West,279,0.0,4.0,65,0.00,,,0.00,149.0,meteohub,2013-07-30 14:33:00,
2013-07-30 10:38:00,75.7,62.8,30.19,West,279,0.0,4.0,64,0.00,,,0.00,148.0,meteohub,2013-07-30 14:38:00,
2013-07-30 10:43:00,75.9,63.7,30.19,West,279,0.0,2.0,66,0.00,,,0.00,142.0,meteohub,2013-07-30 14:43:00,
2013-07-30 10:46:00,76.1,63.5,30.19,West,279,0.0,2.0,65,0.00,,,0.00,281.0,meteohub,2013-07-30 14:46:00,
2013-07-30 10:51:00,76.5,63.9,30.18,West,277,0.0,2.0,65,0.00,,,0.00,257.0,meteohub,2013-07-30 14:51:00,
2013-07-30 10:56:00,76.6,63.5,30.19,West,275,0.0,4.0,64,0.00,,,0.00,127.0,meteohub,2013-07-30 14:56:00,
2013-07-30 11:01:00,76.6,63.1,30.19,WNW,292,0.0,4.0,63,0.00,,,0.00,142.0,meteohub,2013-07-30 15:01:00,
2013-07-30 11:06:00,76.8,63.7,30.18,WNW,291,0.0,6.0,64,0.00,,,0.00,118.0,meteohub,2013-07-30 15:06:00,
2013-07-30 11:12:00,77.2,63.7,30.18,WNW,291,0.0,6.0,63,0.00,,,0.00,130.0,meteohub,2013-07-30 15:12:00,
2013-07-30 11:17:00,77.4,63.3,30.18,WNW,291,0.0,2.0,62,0.00,,,0.00,132.0,meteohub,2013-07-30 15:17:00,
2013-07-30 11:22:00,77.4,64.2,30.18,WNW,291,0.0,2.0,64,0.00,,,0.00,95.0,meteohub,2013-07-30 15:22:00,
2013-07-30 11:27:00,77.2,62.6,30.18,WNW,297,0.0,2.0,61,0.00,,,0.00,156.0,meteohub,2013-07-30 15:27:00,
2013-07-30 11:32:00,77.0,63.0,30.18,WNW,296,0.0,8.0,62,0.00,,,0.00,181.0,meteohub,2013-07-30 15:32:00,
2013-07-30 11:37:00,77.2,63.7,30.18,WNW,297,0.0,8.0,63,0.00,,,0.00,378.0,meteohub,2013-07-30 15:37:00,
2013-07-30 11:42:00,77.5,64.4,30.17,WNW,300,1.0,8.0,64,0.00,,,0.00,179.0,meteohub,2013-07-30 15:42:00,
2013-07-30 11:47:00,77.5,63.5,30.18,WNW,301,0.0,5.0,62,0.00,,,0.00,283.0,meteohub,2013-07-30 15:47:00,
2013-07-30 11:52:00,77.7,62.8,30.18,WNW,298,1.0,5.0,60,0.00,,,0.00,232.0,meteohub,2013-07-30 15:52:00,
2013-07-30 11:57:00,78.1,63.5,30.18,WNW,302,0.0,5.0,61,0.00,,,0.00,271.0,meteohub,2013-07-30 15:57:00,
2013-07-30 12:02:00,78.1,63.1,30.18,WNW,298,1.0,5.0,60,0.00,,,0.00,229.0,meteohub,2013-07-30 16:02:00,
2013-07-30 12:07:00,78.1,63.5,30.17,NW,304,0.0,10.0,61,0.00,,,0.00,271.0,meteohub,2013-07-30 16:07:00,
2013-07-30 12:12:00,78.4,63.0,30.18,NW,304,0.0,10.0,59,0.00,,,0.00,287.0,meteohub,2013-07-30 16:12:00,
2013-07-30 12:17:00,78.6,64.6,30.17,NW,314,1.0,8.0,62,0.00,,,0.00,816.0,meteohub,2013-07-30 16:17:00,
2013-07-30 12:22:00,78.6,63.5,30.17,NW,315,0.0,4.0,60,0.00,,,0.00,951.0,meteohub,2013-07-30 16:22:00,
2013-07-30 12:28:00,79.3,64.2,30.17,NW,314,1.0,4.0,60,0.00,,,0.00,1071.0,meteohub,2013-07-30 16:28:00,
2013-07-30 12:33:00,79.3,63.7,30.17,NW,306,0.0,5.0,59,0.00,,,0.00,1053.0,meteohub,2013-07-30 16:33:00,
2013-07-30 12:38:00,79.2,63.7,30.17,NW,308,1.0,5.0,59,0.00,,,0.00,1072.0,meteohub,2013-07-30 16:38:00,
2013-07-30 12:43:00,79.3,64.2,30.17,NW,306,0.0,7.0,60,0.00,,,0.00,976.0,meteohub,2013-07-30 16:43:00,
2013-07-30 12:48:00,79.5,64.4,30.17,WNW,300,0.0,7.0,60,0.00,,,0.00,861.0,meteohub,2013-07-30 16:48:00,
2013-07-30 12:53:00,79.7,65.5,30.17,WNW,300,0.0,5.0,62,0.00,,,0.00,301.0,meteohub,2013-07-30 16:53:00,
2013-07-30 12:58:00,79.9,64.8,30.17,WNW,299,1.0,4.0,60,0.00,,,0.00,953.0,meteohub,2013-07-30 16:58:00,
2013-07-30 13:03:00,80.2,66.6,30.16,WNW,299,1.0,3.0,63,0.00,,,0.00,900.0,meteohub,2013-07-30 17:03:00,
2013-07-30 13:08:00,80.8,65.7,30.16,WNW,290,0.0,3.0,60,0.00,,,0.00,1053.0,meteohub,2013-07-30 17:08:00,
2013-07-30 13:13:00,80.4,64.2,30.16,WNW,290,0.0,8.0,58,0.00,,,0.00,480.0,meteohub,2013-07-30 17:13:00,
2013-07-30 13:18:00,79.9,63.9,30.16,WNW,291,0.0,8.0,58,0.00,,,0.00,308.0,meteohub,2013-07-30 17:18:00,
2013-07-30 13:23:00,79.3,64.2,30.16,WNW,294,1.0,8.0,60,0.00,,,0.00,199.0,meteohub,2013-07-30 17:23:00,
2013-07-30 13:28:00,78.8,64.2,30.16,WNW,295,0.0,5.0,61,0.00,,,0.00,287.0,meteohub,2013-07-30 17:28:00,
2013-07-30 13:33:00,79.0,64.8,30.16,WNW,295,3.0,5.0,62,0.00,,,0.00,1139.0,meteohub,2013-07-30 17:33:00,
2013-07-30 13:38:00,79.9,64.8,30.16,WNW,294,2.0,5.0,60,0.00,,,0.00,1095.0,meteohub,2013-07-30 17:38:00,
2013-07-30 13:43:00,80.1,64.4,30.15,West,281,3.0,5.0,59,0.00,,,0.00,840.0,meteohub,2013-07-30 17:43:00,
2013-07-30 13:48:00,80.1,64.9,30.16,NW,306,0.0,6.0,60,0.00,,,0.00,1127.0,meteohub,2013-07-30 17:48:00,
2013-07-30 13:53:00,80.2,64.0,30.16,WNW,302,0.0,6.0,58,0.00,,,0.00,1178.0,meteohub,2013-07-30 17:53:00,
2013-07-30 13:58:00,80.2,66.0,30.16,NW,311,0.0,7.0,62,0.00,,,0.00,613.0,meteohub,2013-07-30 17:58:00,
2013-07-30 14:04:00,80.6,65.5,30.15,WNW,296,4.0,7.0,60,0.00,,,0.00,835.0,meteohub,2013-07-30 18:04:00,
2013-07-30 14:09:00,80.4,64.8,30.15,NW,304,0.0,7.0,59,0.00,,,0.00,1076.0,meteohub,2013-07-30 18:09:00,
2013-07-30 14:14:00,80.2,65.1,30.15,NW,304,0.0,6.0,60,0.00,,,0.00,758.0,meteohub,2013-07-30 18:14:00,
2013-07-30 14:19:00,80.4,64.8,30.15,WNW,286,1.0,6.0,59,0.00,,,0.00,1132.0,meteohub,2013-07-30 18:19:00,
2013-07-30 14:24:00,80.6,65.5,30.15,WNW,286,0.0,6.0,60,0.00,,,0.00,1048.0,meteohub,2013-07-30 18:24:00,
2013-07-30 14:29:00,81.1,65.5,30.15,WNW,292,1.0,5.0,59,0.00,,,0.00,1056.0,meteohub,2013-07-30 18:29:00,
2013-07-30 14:34:00,81.3,65.7,30.15,WNW,298,0.0,5.0,59,0.00,,,0.00,984.0,meteohub,2013-07-30 18:34:00,
2013-07-30 14:39:00,81.7,66.0,30.14,WNW,303,0.0,4.0,59,0.00,,,0.00,248.0,meteohub,2013-07-30 18:39:00,
2013-07-30 14:44:00,81.7,65.5,30.14,WNW,303,0.0,5.0,58,0.00,,,0.00,726.0,meteohub,2013-07-30 18:44:00,
2013-07-30 14:49:00,81.3,65.7,30.14,NW,305,0.0,5.0,59,0.00,,,0.00,842.0,meteohub,2013-07-30 18:49:00,
2013-07-30 14:54:00,81.1,66.4,30.14,NW,304,0.0,5.0,61,0.00,,,0.00,403.0,meteohub,2013-07-30 18:54:00,
2013-07-30 14:59:00,81.1,65.5,30.14,NW,310,2.0,5.0,59,0.00,,,0.00,584.0,meteohub,2013-07-30 18:59:00,
2013-07-30 15:04:00,81.1,66.0,30.14,NW,310,0.0,6.0,60,0.00,,,0.00,962.0,meteohub,2013-07-30 19:04:00,
2013-07-30 15:09:00,81.9,66.6,30.13,NW,310,0.0,6.0,60,0.00,,,0.00,998.0,meteohub,2013-07-30 19:09:00,
2013-07-30 15:14:00,82.2,66.0,30.13,NW,310,0.0,6.0,58,0.00,,,0.00,705.0,meteohub,2013-07-30 19:14:00,
2013-07-30 15:19:00,82.8,66.0,30.13,SW,223,0.0,4.0,57,0.00,,,0.00,364.0,meteohub,2013-07-30 19:19:00,
2013-07-30 15:24:00,82.8,65.5,30.13,WNW,294,4.0,4.0,56,0.00,,,0.00,679.0,meteohub,2013-07-30 19:24:00,
2013-07-30 15:29:00,81.9,65.1,30.12,WNW,297,4.0,4.0,57,0.00,,,0.00,241.0,meteohub,2013-07-30 19:29:00,
2013-07-30 15:35:00,81.0,64.8,30.12,WNW,288,0.0,8.0,58,0.00,,,0.00,336.0,meteohub,2013-07-30 19:35:00,
2013-07-30 15:40:00,80.6,65.5,30.12,WNW,288,0.0,8.0,60,0.00,,,0.00,830.0,meteohub,2013-07-30 19:40:00,
2013-07-30 15:45:00,81.1,66.4,30.12,WNW,288,0.0,6.0,61,0.00,,,0.00,882.0,meteohub,2013-07-30 19:45:00,
2013-07-30 15:50:00,82.2,66.9,30.12,WNW,288,0.0,2.0,60,0.00,,,0.00,759.0,meteohub,2013-07-30 19:50:00,
2013-07-30 15:55:00,82.9,67.1,30.12,West,281,0.0,2.0,59,0.00,,,0.00,947.0,meteohub,2013-07-30 19:55:00,
2013-07-30 16:00:00,83.5,66.2,30.12,WNW,295,0.0,4.0,56,0.00,,,0.00,912.0,meteohub,2013-07-30 20:00:00,
2013-07-30 16:05:00,83.5,66.6,30.12,West,269,0.0,4.0,57,0.00,,,0.00,884.0,meteohub,2013-07-30 20:05:00,
2013-07-30 16:10:00,83.7,67.8,30.12,West,271,0.0,4.0,59,0.00,,,0.00,708.0,meteohub,2013-07-30 20:10:00,
2013-07-30 16:15:00,83.3,66.6,30.12,WNW,295,0.0,4.0,57,0.00,,,0.00,807.0,meteohub,2013-07-30 20:15:00,
2013-07-30 16:20:00,83.1,66.7,30.12,WNW,294,0.0,4.0,58,0.00,,,0.00,745.0,meteohub,2013-07-30 20:20:00,
2013-07-30 16:25:00,82.8,66.6,30.12,WNW,296,0.0,4.0,58,0.00,,,0.00,476.0,meteohub,2013-07-30 20:25:00,
2013-07-30 16:30:00,82.6,66.4,30.12,WNW,296,1.0,5.0,58,0.00,,,0.00,599.0,meteohub,2013-07-30 20:30:00,
2013-07-30 16:35:00,82.6,66.7,30.12,WNW,294,0.0,5.0,59,0.00,,,0.00,362.0,meteohub,2013-07-30 20:35:00,
2013-07-30 16:41:00,82.6,66.7,30.12,West,281,0.0,3.0,59,0.00,,,0.00,167.0,meteohub,2013-07-30 20:41:00,
2013-07-30 16:46:00,82.0,66.7,30.12,West,281,0.0,3.0,60,0.00,,,0.00,165.0,meteohub,2013-07-30 20:46:00,
2013-07-30 16:51:00,81.7,66.4,30.12,WNW,294,4.0,4.0,60,0.00,,,0.00,323.0,meteohub,2013-07-30 20:51:00,
2013-07-30 16:56:00,81.5,66.2,30.12,WNW,294,2.0,4.0,60,0.00,,,0.00,534.0,meteohub,2013-07-30 20:56:00,
2013-07-30 17:01:00,81.7,66.4,30.12,West,267,3.0,4.0,60,0.00,,,0.00,705.0,meteohub,2013-07-30 21:01:00,
2013-07-30 17:06:00,81.9,67.1,30.12,WNW,293,1.0,5.0,61,0.00,,,0.00,598.0,meteohub,2013-07-30 21:06:00,
2013-07-30 17:11:00,82.2,67.5,30.12,WNW,298,1.0,5.0,61,0.00,,,0.00,621.0,meteohub,2013-07-30 21:11:00,
2013-07-30 17:17:00,82.4,67.6,30.12,NW,312,0.0,5.0,61,0.00,,,0.00,624.0,meteohub,2013-07-30 21:17:00,
2013-07-30 17:22:00,82.6,67.3,30.12,NW,311,0.0,5.0,60,0.00,,,0.00,592.0,meteohub,2013-07-30 21:22:00,
2013-07-30 17:27:00,82.8,68.4,30.12,WNW,292,0.0,5.0,62,0.00,,,0.00,557.0,meteohub,2013-07-30 21:27:00,
2013-07-30 17:32:00,82.6,66.7,30.11,NW,319,4.0,4.0,59,0.00,,,0.00,186.0,meteohub,2013-07-30 21:32:00,
2013-07-30 17:37:00,82.0,66.4,30.11,WNW,299,1.0,5.0,59,0.00,,,0.00,334.0,meteohub,2013-07-30 21:37:00,
2013-07-30 17:42:00,81.7,66.4,30.11,WNW,300,1.0,5.0,60,0.00,,,0.00,171.0,meteohub,2013-07-30 21:42:00,
2013-07-30 17:47:00,81.5,66.2,30.11,WNW,300,0.0,5.0,60,0.00,,,0.00,104.0,meteohub,2013-07-30 21:47:00,
2013-07-30 17:52:00,81.3,67.1,30.11,WNW,300,0.0,5.0,62,0.00,,,0.00,135.0,meteohub,2013-07-30 21:52:00,
2013-07-30 17:57:00,81.3,67.1,30.11,WNW,297,1.0,3.0,62,0.00,,,0.00,141.0,meteohub,2013-07-30 21:57:00,
2013-07-30 18:02:00,81.1,66.9,30.11,WNW,297,0.0,4.0,62,0.00,,,0.00,88.0,meteohub,2013-07-30 22:02:00,
2013-07-30 18:07:00,81.1,67.3,30.11,WNW,297,1.0,4.0,63,0.00,,,0.00,125.0,meteohub,2013-07-30 22:07:00,
2013-07-30 18:12:00,81.1,66.9,30.11,WNW,297,1.0,4.0,62,0.00,,,0.00,120.0,meteohub,2013-07-30 22:12:00,
2013-07-30 18:17:00,81.1,67.3,30.12,WNW,296,0.0,2.0,63,0.00,,,0.00,116.0,meteohub,2013-07-30 22:17:00,
2013-07-30 18:22:00,81.1,67.3,30.11,WNW,296,0.0,2.0,63,0.00,,,0.00,113.0,meteohub,2013-07-30 22:22:00,
2013-07-30 18:27:00,81.1,66.9,30.11,WNW,297,1.0,2.0,62,0.00,,,0.00,100.0,meteohub,2013-07-30 22:27:00,
2013-07-30 18:32:00,81.0,66.7,30.11,WNW,298,0.0,2.0,62,0.00,,,0.00,72.0,meteohub,2013-07-30 22:32:00,
2013-07-30 18:37:00,80.8,67.5,30.11,WNW,298,0.0,3.0,64,0.00,,,0.00,79.0,meteohub,2013-07-30 22:37:00,
2013-07-30 18:42:00,80.4,67.1,30.11,WNW,299,0.0,3.0,64,0.00,,,0.00,127.0,meteohub,2013-07-30 22:42:00,
2013-07-30 18:47:00,80.1,66.4,30.11,WNW,302,1.0,4.0,63,0.00,,,0.00,90.0,meteohub,2013-07-30 22:47:00,
2013-07-30 18:52:00,79.9,66.6,30.11,WNW,302,0.0,4.0,64,0.00,,,0.00,63.0,meteohub,2013-07-30 22:52:00,
2013-07-30 18:58:00,79.7,66.4,30.12,WNW,303,0.0,4.0,64,0.00,,,0.00,70.0,meteohub,2013-07-30 22:58:00,
2013-07-30 19:03:00,79.5,66.7,30.12,WNW,303,0.0,4.0,65,0.00,,,0.00,79.0,meteohub,2013-07-30 23:03:00,
2013-07-30 19:08:00,79.5,66.7,30.12,WNW,303,0.0,4.0,65,0.00,,,0.00,69.0,meteohub,2013-07-30 23:08:00,
2013-07-30 19:13:00,79.7,66.9,30.12,WNW,303,0.0,2.0,65,0.00,,,0.00,65.0,meteohub,2013-07-30 23:13:00,
2013-07-30 19:18:00,79.7,66.9,30.11,WNW,303,0.0,2.0,65,0.00,,,0.00,81.0,meteohub,2013-07-30 23:18:00,
2013-07-30 19:23:00,79.9,67.1,30.11,WNW,303,0.0,2.0,65,0.00,,,0.00,81.0,meteohub,2013-07-30 23:23:00,
2013-07-30 19:28:00,79.9,67.5,30.11,WNW,303,0.0,2.0,66,0.00,,,0.00,88.0,meteohub,2013-07-30 23:28:00,
2013-07-30 19:33:00,79.9,68.0,30.11,WNW,303,0.0,1.0,67,0.00,,,0.00,84.0,meteohub,2013-07-30 23:33:00,
2013-07-30 19:38:00,79.9,68.0,30.11,WNW,303,0.0,1.0,67,0.00,,,0.00,65.0,meteohub,2013-07-30 23:38:00,
2013-07-30 19:43:00,79.5,68.0,30.11,WNW,300,0.0,1.0,68,0.00,,,0.00,53.0,meteohub,2013-07-30 23:43:00,
2013-07-30 19:48:00,79.5,68.0,30.11,WNW,300,0.0,2.0,68,0.00,,,0.00,32.0,meteohub,2013-07-30 23:48:00,
2013-07-30 19:53:00,79.3,68.4,30.12,WNW,300,0.0,2.0,69,0.00,,,0.00,14.0,meteohub,2013-07-30 23:53:00,
2013-07-30 19:58:00,78.8,67.8,30.11,WNW,300,0.0,1.0,69,0.00,,,0.00,11.0,meteohub,2013-07-30 23:58:00,
2013-07-30 20:03:00,78.4,67.8,30.12,WNW,300,0.0,0.0,70,0.00,,,0.00,7.0,meteohub,2013-07-31 00:03:00,
2013-07-30 20:08:00,78.1,67.5,30.12,WNW,300,0.0,0.0,70,0.00,,,0.00,5.0,meteohub,2013-07-31 00:08:00,
2013-07-30 20:13:00,77.7,67.6,30.12,WNW,300,0.0,0.0,71,0.00,,,0.00,0.0,meteohub,2013-07-31 00:13:00,
2013-07-30 20:18:00,77.5,67.5,30.11,WNW,300,0.0,0.0,71,0.00,,,0.00,0.0,meteohub,2013-07-31 00:18:00,
2013-07-30 20:24:00,77.2,67.5,30.11,WNW,300,0.0,0.0,72,0.00,,,0.00,0.0,meteohub,2013-07-31 00:24:00,
2013-07-30 20:29:00,76.8,67.1,30.11,WNW,300,0.0,0.0,72,0.00,,,0.00,0.0,meteohub,2013-07-31 00:29:00,
2013-07-30 20:34:00,76.5,67.1,30.12,WNW,300,0.0,0.0,73,0.00,,,0.00,0.0,meteohub,2013-07-31 00:34:00,
2013-07-30 20:39:00,76.3,66.9,30.12,WNW,300,0.0,0.0,73,0.00,,,0.00,0.0,meteohub,2013-07-31 00:39:00,
2013-07-30 20:44:00,75.9,67.1,30.12,WNW,300,0.0,0.0,74,0.00,,,0.00,0.0,meteohub,2013-07-31 00:44:00,
2013-07-30 20:49:00,75.7,66.9,30.12,WNW,300,0.0,0.0,74,0.00,,,0.00,0.0,meteohub,2013-07-31 00:49:00,
2013-07-30 20:54:00,75.6,67.1,30.12,WNW,300,0.0,0.0,75,0.00,,,0.00,0.0,meteohub,2013-07-31 00:54:00,
2013-07-30 20:59:00,75.4,66.9,30.12,WNW,300,0.0,0.0,75,0.00,,,0.00,0.0,meteohub,2013-07-31 00:59:00,
2013-07-30 21:04:00,75.0,66.6,30.12,WNW,300,0.0,0.0,75,0.00,,,0.00,0.0,meteohub,2013-07-31 01:04:00,
2013-07-30 21:09:00,74.8,66.7,30.12,WNW,300,0.0,0.0,76,0.00,,,0.00,0.0,meteohub,2013-07-31 01:09:00,
2013-07-30 21:14:00,74.7,66.9,30.12,WNW,300,0.0,0.0,77,0.00,,,0.00,0.0,meteohub,2013-07-31 01:14:00,
2013-07-30 21:19:00,74.5,66.7,30.12,WNW,300,0.0,0.0,77,0.00,,,0.00,0.0,meteohub,2013-07-31 01:19:00,
2013-07-30 21:24:00,74.3,66.6,30.12,WNW,300,0.0,0.0,77,0.00,,,0.00,0.0,meteohub,2013-07-31 01:24:00,
2013-07-30 21:29:00,74.1,66.4,30.12,WNW,300,0.0,0.0,77,0.00,,,0.00,0.0,meteohub,2013-07-31 01:29:00,
2013-07-30 21:34:00,73.9,66.2,30.12,WNW,300,0.0,0.0,77,0.00,,,0.00,0.0,meteohub,2013-07-31 01:34:00,
2013-07-30 21:39:00,73.9,66.6,30.12,WNW,300,0.0,0.0,78,0.00,,,0.00,0.0,meteohub,2013-07-31 01:39:00,
2013-07-30 21:45:00,73.8,66.4,30.12,WNW,300,0.0,0.0,78,0.00,,,0.00,0.0,meteohub,2013-07-31 01:45:00,
2013-07-30 21:50:00,73.8,66.4,30.12,WNW,300,0.0,0.0,78,0.00,,,0.00,0.0,meteohub,2013-07-31 01:50:00,
2013-07-30 21:55:00,73.8,66.4,30.12,WNW,300,0.0,0.0,78,0.00,,,0.00,0.0,meteohub,2013-07-31 01:55:00,
2013-07-30 22:00:00,73.6,66.4,30.12,WNW,300,0.0,0.0,78,0.00,,,0.00,0.0,meteohub,2013-07-31 02:00:00,
2013-07-30 22:05:00,73.6,66.4,30.12,WNW,300,0.0,0.0,78,0.00,,,0.00,0.0,meteohub,2013-07-31 02:05:00,
2013-07-30 22:10:00,73.4,66.6,30.12,WNW,300,0.0,0.0,79,0.00,,,0.00,0.0,meteohub,2013-07-31 02:10:00,
2013-07-30 22:15:00,73.2,66.4,30.12,WNW,300,0.0,0.0,79,0.00,,,0.00,0.0,meteohub,2013-07-31 02:15:00,
2013-07-30 22:20:00,73.0,66.6,30.12,WNW,300,0.0,0.0,80,0.00,,,0.00,0.0,meteohub,2013-07-31 02:20:00,
2013-07-30 22:25:00,73.0,66.6,30.12,WNW,300,0.0,0.0,80,0.00,,,0.00,0.0,meteohub,2013-07-31 02:25:00,
2013-07-30 22:26:00,72.9,66.4,30.12,WNW,300,0.0,0.0,80,0.00,,,0.00,0.0,meteohub,2013-07-31 02:26:00,
2013-07-30 22:31:00,72.9,66.4,30.12,WNW,300,0.0,0.0,80,0.00,,,0.00,0.0,meteohub,2013-07-31 02:31:00,
2013-07-30 22:36:00,72.7,66.2,30.12,WNW,300,0.0,0.0,80,0.00,,,0.00,0.0,meteohub,2013-07-31 02:36:00,
2013-07-30 22:41:00,72.7,66.2,30.12,WNW,300,0.0,0.0,80,0.00,,,0.00,0.0,meteohub,2013-07-31 02:41:00,
2013-07-30 22:47:00,72.9,66.4,30.12,WNW,300,0.0,0.0,80,0.00,,,0.00,0.0,meteohub,2013-07-31 02:47:00,
2013-07-30 22:52:00,72.9,66.4,30.12,WNW,300,0.0,0.0,80,0.00,,,0.00,0.0,meteohub,2013-07-31 02:52:00,
2013-07-30 22:57:00,72.9,66.4,30.12,WNW,300,0.0,0.0,80,0.00,,,0.00,0.0,meteohub,2013-07-31 02:57:00,
2013-07-30 23:02:00,72.9,66.4,30.12,WNW,300,0.0,0.0,80,0.00,,,0.00,0.0,meteohub,2013-07-31 03:02:00,
2013-07-30 23:07:00,72.7,66.2,30.12,WNW,300,0.0,0.0,80,0.00,,,0.00,0.0,meteohub,2013-07-31 03:07:00,
2013-07-30 23:12:00,72.7,66.2,30.12,WNW,300,0.0,0.0,80,0.00,,,0.00,0.0,meteohub,2013-07-31 03:12:00,
2013-07-30 23:17:00,72.5,66.0,30.12,WNW,300,0.0,0.0,80,0.00,,,0.00,0.0,meteohub,2013-07-31 03:17:00,
2013-07-30 23:22:00,72.5,66.4,30.12,WNW,300,0.0,0.0,81,0.00,,,0.00,0.0,meteohub,2013-07-31 03:22:00,
2013-07-30 23:27:00,72.7,66.6,30.12,WNW,300,0.0,0.0,81,0.00,,,0.00,0.0,meteohub,2013-07-31 03:27:00,
2013-07-30 23:32:00,72.7,66.6,30.11,WNW,300,0.0,0.0,81,0.00,,,0.00,0.0,meteohub,2013-07-31 03:32:00,
2013-07-30 23:37:00,72.7,66.6,30.11,WNW,300,0.0,0.0,81,0.00,,,0.00,0.0,meteohub,2013-07-31 03:37:00,
2013-07-30 23:42:00,72.7,66.9,30.12,WNW,300,0.0,0.0,82,0.00,,,0.00,0.0,meteohub,2013-07-31 03:42:00,
2013-07-30 23:47:00,72.3,66.6,30.11,WNW,300,0.0,0.0,82,0.00,,,0.00,0.0,meteohub,2013-07-31 03:47:00,
2013-07-30 23:52:00,72.3,66.9,30.11,WNW,300,0.0,0.0,83,0.00,,,0.00,0.0,meteohub,2013-07-31 03:52:00,
2013-07-30 23:57:00,72.1,67.1,30.11,WNW,300,0.0,0.0,84,0.00,,,0.00,0.0,meteohub,2013-07-31 03:57:00,